TimePST,TemperatureF,Dew PointF,Humidity,Sea Level PressureIn,VisibilityMPH,Wind Direction,Wind SpeedMPH,Gust SpeedMPH,PrecipitationIn,Events,Conditions,WindDirDegrees,DateUTC
12:53 AM,42.1,34.0,73,29.75,10.0,East,6.9,-,N/A,,Clear,80,2013-02-19 08:53:00
1:53 AM,42.1,34.0,73,29.75,10.0,ENE,5.8,-,N/A,,Overcast,60,2013-02-19 09:53:00
2:53 AM,41.0,34.0,76,29.76,10.0,NE,6.9,-,N/A,,Mostly Cloudy,50,2013-02-19 10:53:00
3:42 AM,42.8,33.8,70,29.76,10.0,NE,4.6,-,N/A,,Overcast,50,2013-02-19 11:42:00
3:53 AM,42.1,34.0,73,29.76,10.0,NE,6.9,-,N/A,,Overcast,40,2013-02-19 11:53:00
4:53 AM,42.1,34.0,73,29.77,10.0,ENE,5.8,-,N/A,,Overcast,70,2013-02-19 12:53:00
5:03 AM,42.8,33.8,70,29.77,10.0,NE,5.8,-,N/A,,Overcast,40,2013-02-19 13:03:00
5:29 AM,41.0,33.8,76,29.78,10.0,ENE,4.6,-,N/A,,Overcast,60,2013-02-19 13:29:00
5:53 AM,41.0,34.0,76,29.79,10.0,Calm,Calm,-,N/A,,Overcast,0,2013-02-19 13:53:00
6:53 AM,41.0,34.0,76,29.81,10.0,Calm,Calm,-,N/A,,Overcast,0,2013-02-19 14:53:00
7:53 AM,41.0,35.1,79,29.82,10.0,Calm,Calm,-,N/A,,Overcast,0,2013-02-19 15:53:00
8:53 AM,41.0,34.0,76,29.83,10.0,Variable,3.5,-,N/A,,Overcast,0,2013-02-19 16:53:00
10:53 AM,45.0,32.0,60,29.85,10.0,North,9.2,-,N/A,,Clear,360,2013-02-19 18:53:00
11:53 AM,45.0,36.0,71,29.87,10.0,North,9.2,18.4,N/A,,Clear,350,2013-02-19 19:53:00
12:53 PM,44.1,36.0,73,29.88,10.0,NNW,6.9,17.3,N/A,,Mostly Cloudy,330,2013-02-19 20:53:00
1:22 PM,44.6,35.6,71,29.88,10.0,North,8.1,-,N/A,,Scattered Clouds,350,2013-02-19 21:22:00
1:53 PM,45.0,36.0,71,29.88,10.0,North,10.4,-,N/A,,Clear,360,2013-02-19 21:53:00
2:53 PM,45.0,36.0,71,29.89,10.0,North,8.1,-,N/A,,Partly Cloudy,350,2013-02-19 22:53:00
4:53 PM,44.1,36.0,73,29.91,10.0,North,3.5,-,N/A,,Unknown,350,2013-02-20 00:53:00
5:53 PM,39.9,35.1,83,29.91,10.0,Calm,Calm,-,N/A,,Clear,0,2013-02-20 01:53:00
6:53 PM,39.0,35.1,86,29.93,10.0,WSW,3.5,-,N/A,,Clear,250,2013-02-20 02:53:00
7:53 PM,36.0,34.0,93,29.95,10.0,West,3.5,-,N/A,,Clear,260,2013-02-20 03:53:00
8:53 PM,35.1,34.0,96,29.97,10.0,Calm,Calm,-,N/A,,Clear,0,2013-02-20 04:53:00
9:53 PM,35.1,34.0,96,29.98,10.0,West,3.5,-,N/A,,Clear,280,2013-02-20 05:53:00
10:53 PM,36.0,34.0,93,30.00,10.0,WNW,3.5,-,N/A,,Clear,290,2013-02-20 06:53:00
11:53 PM,32.0,32.0,100,30.01,9.0,Calm,Calm,-,N/A,,Clear,0,2013-02-20 07:53:00